Location: Leipzig
(51.3392°N, 12.3528°E)
Time: 06:02:10
(UTC+01:00)

ISS - Pass Details

Date: 09 January 2018
Orbit: 402 x 407 km, 51.6° (Epoch: 20 January)

Event Time Altitude Azimuth Distance (km) Brightness Sun altitude
Exits shadow 07:21:38 - 276° (W) 1,538 -1.5 -7.7°
Reaches altitude 10° 07:21:49 10° 275° (W) 1,469 -1.6 -7.7°
Maximum altitude 07:24:49 33° 209° (SSW) 708 -2.6 -7.3°
Drops below altitude 10° 07:27:49 10° 143° (SE) 1,464 0.2 -6.9°
Sets 07:30:00 0° 134° (SE) 2,323 1.8 -6.5°
